Location: D�derode
(51.8092°N, 10.1065°E)
Time: 05:46:36
(UTC+00:00)

Cosmos 1656 Rocket - Pass Details

Date: 01 December 2020
Orbit: 796 x 846 km, 71.1° (Epoch: 23 January)

Event Time Altitude Azimuth Distance (km) Brightness Sun altitude
Rises 17:01:17 0° 330° (NNW) 3,412 7.1 -15.9°
Reaches altitude 10° 17:03:47 10° 333° (NNW) 2,468 6.3 -16.3°
Maximum altitude 17:09:26 67° 56° (NE) 903 3.6 -17.2°
Drops below altitude 10° 17:14:58 10° 139° (SE) 2,424 5.8 -18.0°
Enters shadow 17:17:15 - 142° (SE) 3,290 6.5 -18.3°
